SM7GXQ Farjestaden SE current weather conditions

sailwx.info

Wind from 042 at 0 knots gusting 2

Air temperature 13.9° C
Dewpoint 12.4° C

Last reported at 2020-Jul-10 16:00 UTC.
Time now 2020-Jul-10 16:22 UTC

Location: N 56°39' E 016°28'.
View on Google Maps.

See reports from other nearby stations

  
Tides and Currents Weather Stations Pressure Air Temp Water Temp Dewpoint Dewpoint Depression Visibility Wind Speed Wind Dir Waves Ship Positions
date/time (UTC)wind fromknots sea level pressurealtimeterstation pressurevisibilityair tempwater tempwave heightnotes
2020-Jul-10 16:00 042 0 gusting 2 13.9
2020-Jul-10 15:45 263 14.4
2020-Jul-10 15:30 263 0 gusting 1 14.4
2020-Jul-10 15:15 263 14.4
2020-Jul-10 15:00 263 14.4
2020-Jul-10 14:45 283 15.0
2020-Jul-10 14:30 249 0 gusting 2 15.0
2020-Jul-10 14:00 219 0 gusting 4 15.6
2020-Jul-10 13:45 171 2 gusting 6 16.1
2020-Jul-10 13:30 149 3 gusting 6 16.1
2020-Jul-10 13:00 098 1 gusting 5 16.1
2020-Jul-10 12:30 126 1 gusting 7 15.6
2020-Jul-10 12:00 148 3 gusting 8 15.6
2020-Jul-10 11:45 150 4 gusting 10 15.6
2020-Jul-10 11:15 125 2 gusting 10 15.6
2020-Jul-10 11:00 129 2 gusting 10 16.1
2020-Jul-10 10:15 151 1 gusting 7 16.7
2020-Jul-10 10:00 116 2 gusting 7 16.7
2020-Jul-10 09:45 126 2 gusting 10 16.7
2020-Jul-10 09:00 164 4 gusting 10 16.7
2020-Jul-10 08:45 182 0 gusting 6 16.7
2020-Jul-10 08:15 234 3 gusting 6 16.7
2020-Jul-10 08:00 231 2 gusting 6 16.1
2020-Jul-10 07:30 211 3 gusting 6 16.1
2020-Jul-10 07:15 192 1 gusting 6 15.6
2020-Jul-10 07:00 245 2 gusting 6 15.6
2020-Jul-10 06:45 245 1 gusting 5 15.6
2020-Jul-10 06:30 180 1 gusting 5 15.6
2020-Jul-10 05:45 200 3 gusting 5 13.9
2020-Jul-10 05:15 186 1 gusting 2 13.3
2020-Jul-10 05:00 200 0 gusting 4 12.8
2020-Jul-10 04:45 233 1 gusting 2 12.2
2020-Jul-10 04:30 217 11.7
2020-Jul-10 04:15 132 0 gusting 1 11.1
2020-Jul-10 04:00 132 10.6
2020-Jul-10 03:45 132 0 gusting 1 10.0
2020-Jul-10 03:30 132 0 gusting 1 9.4
2020-Jul-10 03:15 132 0 gusting 1 8.9
2020-Jul-10 02:15 132 1 gusting 2 8.9
2020-Jul-10 01:45 132 8.9
2020-Jul-10 01:30 132 0 gusting 1 9.4
2020-Jul-10 01:15 132 0 gusting 2 9.4
2020-Jul-10 01:00 132 1 gusting 2 9.4
2020-Jul-10 00:45 132 0 gusting 1 9.4
2020-Jul-10 00:15 132 1 gusting 2 10.0
2020-Jul-10 00:00 151 1 gusting 4 10.0
2020-Jul-09 23:30 163 0 gusting 2 10.6
2020-Jul-09 23:15 163 1 gusting 4 10.6
2020-Jul-09 23:00 166 1 gusting 4 11.1
2020-Jul-09 22:15 175 1 gusting 4 11.7
2020-Jul-09 22:00 164 2 gusting 5 11.7
2020-Jul-09 21:45 158 1 gusting 5 11.7
2020-Jul-09 21:30 176 1 gusting 4 11.7
2020-Jul-09 21:00 162 2 gusting 4 12.2
2020-Jul-09 20:30 174 2 gusting 6 13.3
2020-Jul-09 20:15 181 2 gusting 7 13.9
2020-Jul-09 19:30 182 3 gusting 7 14.4
2020-Jul-09 19:15 196 4 gusting 10 14.4
2020-Jul-09 19:00 199 5 gusting 11 14.4
2020-Jul-09 18:45 185 4 gusting 8 14.4
2020-Jul-09 18:15 185 3 gusting 7 15.0
2020-Jul-09 18:00 181 4 gusting 8 15.0
2020-Jul-09 17:45 174 2 gusting 8 15.0
2020-Jul-09 17:30 186 2 gusting 12 15.0
2020-Jul-09 17:15 193 5 gusting 12 15.6
2020-Jul-09 17:00 179 5 gusting 13 15.6
2020-Jul-09 16:30 170 5 gusting 13 16.1
2020-Jul-09 15:15 183 7 gusting 17 17.2
2020-Jul-09 15:00 194 6 gusting 14 17.2
2020-Jul-09 14:45 217 3 gusting 12 18.3
2020-Jul-09 14:30 204 5 gusting 13 18.9
2020-Jul-09 14:15 179 5 gusting 12 18.3
2020-Jul-09 14:00 210 4 gusting 13 18.9
2020-Jul-09 13:45 208 4 gusting 13 18.9
2020-Jul-09 13:30 193 4 gusting 10 19.4
2020-Jul-09 13:00 206 4 gusting 11 18.9
2020-Jul-09 12:45 217 4 gusting 10 18.9
2020-Jul-09 12:15 208 5 gusting 13 18.3
2020-Jul-09 11:45 210 5 gusting 10 18.3
2020-Jul-09 11:15 210 4 gusting 11 18.3
2020-Jul-09 10:45 213 4 gusting 8 18.3
2020-Jul-09 10:30 215 4 gusting 10 17.8
2020-Jul-09 10:15 205 4 gusting 10 17.8
2020-Jul-09 10:00 202 2 gusting 10 17.8
2020-Jul-09 09:45 204 4 gusting 7 17.8
2020-Jul-09 09:30 222 3 gusting 10 17.2
2020-Jul-09 09:15 216 2 gusting 10 17.2
2020-Jul-09 08:45 208 2 gusting 6 17.2
2020-Jul-09 08:15 228 2 gusting 6 16.7
2020-Jul-09 08:00 205 2 gusting 8 16.1
2020-Jul-09 07:45 221 3 gusting 6 16.1
2020-Jul-09 07:30 235 2 gusting 8 15.6
2020-Jul-09 07:15 202 3 gusting 8 15.6
2020-Jul-09 07:00 221 2 gusting 6 15.0
2020-Jul-09 06:45 189 1 gusting 6 14.4
2020-Jul-09 06:30 212 2 gusting 7 14.4
2020-Jul-09 05:30 198 1 gusting 5 13.3
2020-Jul-09 05:15 215 0 gusting 4 12.8
2020-Jul-09 05:00 191 1 gusting 5 12.8
2020-Jul-09 04:45 224 1 gusting 4 12.2
2020-Jul-09 04:30 277 0 gusting 6 12.2
2020-Jul-09 04:15 270 0 gusting 4 11.7
2020-Jul-09 04:00 247 1 gusting 4 11.7
2020-Jul-09 03:45 279 1 gusting 4 11.7
2020-Jul-09 03:30 241 0 gusting 2 11.1
2020-Jul-09 03:15 224 0 gusting 4 11.1
2020-Jul-09 03:00 162 1 gusting 4 11.1
2020-Jul-09 02:45 222 2 gusting 6 11.1
2020-Jul-09 01:45 207 2 gusting 6 11.1
2020-Jul-09 01:30 131 0 gusting 6 11.7
2020-Jul-09 00:15 177 1 gusting 5 12.2
2020-Jul-09 00:00 217 1 gusting 6 12.2
2020-Jul-08 23:30 169 1 gusting 5 12.2
2020-Jul-08 23:15 220 0 gusting 6 12.8
2020-Jul-08 23:00 108 1 gusting 5 12.8
2020-Jul-08 22:45 279 1 gusting 4 13.3
2020-Jul-08 22:30 268 2 gusting 6 13.9
2020-Jul-08 22:15 292 2 gusting 6 13.9
2020-Jul-08 21:30 269 2 gusting 6 13.3
2020-Jul-08 21:15 267 2 gusting 8 13.3
2020-Jul-08 20:45 286 4 gusting 8 13.9
2020-Jul-08 20:30 288 2 gusting 7 13.3
2020-Jul-08 20:00 275 2 gusting 6 13.9
2020-Jul-08 19:45 287 6 gusting 10 13.9
2020-Jul-08 19:30 283 5 gusting 7 14.4
2020-Jul-08 19:15 288 3 gusting 7 14.4
2020-Jul-08 19:00 270 4 gusting 8 14.4
2020-Jul-08 18:45 283 4 gusting 7 14.4
2020-Jul-08 18:30 275 4 gusting 7 14.4
2020-Jul-08 17:30 286 5 gusting 10 15.0
2020-Jul-08 17:15 285 5 gusting 7 15.0
2020-Jul-08 17:00 286 4 gusting 8 15.0
2020-Jul-08 16:45 287 7 gusting 10 15.0
2020-Jul-08 16:15 263 2 gusting 8 15.6
2020-Jul-08 16:00 241 2 gusting 8 15.0